Private Wetterstation Sandau
Wetterdaten: Montag, 01.10.2012
Datum Zeit Temp. A. Feuchte A. Luftdruck Regen Wind Richtung Richtung Taupunkt Windchill
01.10.2012 00:01 7,6 C 83 % 1020,5 hPa 0,0 l/m 0,0 km/h (0 Bft) S-SO 157 4,9 C 7,6 C
01.10.2012 00:06 7,6 C 83 % 1020,6 hPa 0,0 l/m 2,9 km/h (1 Bft) S-SO 157 4,9 C 7,6 C
01.10.2012 00:11 7,5 C 83 % 1020,5 hPa 0,0 l/m 2,5 km/h (1 Bft) S-SO 157 4,8 C 7,5 C
01.10.2012 00:16 7,4 C 83 % 1020,5 hPa 0,0 l/m 2,2 km/h (1 Bft) S-SO 157 4,7 C 7,4 C
01.10.2012 00:21 7,4 C 83 % 1020,5 hPa 0,0 l/m 2,9 km/h (1 Bft) S-SO 157 4,7 C 7,4 C
01.10.2012 00:26 7,4 C 83 % 1020,5 hPa 0,0 l/m 0,0 km/h (0 Bft) S-SO 157 4,7 C 7,4 C
01.10.2012 00:31 7,3 C 83 % 1020,7 hPa 0,0 l/m 4,0 km/h (1 Bft) S-SO 157 4,6 C 7,3 C
01.10.2012 00:36 7,2 C 83 % 1020,8 hPa 0,0 l/m 1,8 km/h (1 Bft) S-SO 157 4,5 C 7,2 C
01.10.2012 00:41 7,2 C 83 % 1020,8 hPa 0,0 l/m 2,5 km/h (1 Bft) S-SO 157 4,5 C 7,2 C
01.10.2012 00:46 7,2 C 83 % 1020,8 hPa 0,0 l/m 3,2 km/h (1 Bft) S-SW 202 4,5 C 7,2 C
01.10.2012 00:51 7,2 C 84 % 1020,8 hPa 0,0 l/m 5,4 km/h (1 Bft) S-SW 202 4,7 C 6,4 C
01.10.2012 00:56 7,3 C 84 % 1020,8 hPa 0,0 l/m 0,0 km/h (0 Bft) S 180 4,8 C 7,3 C
01.10.2012 01:01 7,3 C 84 % 1020,8 hPa 0,0 l/m 6,8 km/h (2 Bft) S-SW 202 4,8 C 6,1 C
01.10.2012 01:06 7,3 C 84 % 1020,8 hPa 0,0 l/m 5,8 km/h (2 Bft) S-SW 202 4,8 C 6,4 C
01.10.2012 01:11 7,4 C 84 % 1020,9 hPa 0,0 l/m 5,8 km/h (2 Bft) S-SO 157 4,9 C 6,5 C
01.10.2012 01:16 7,4 C 84 % 1020,7 hPa 0,0 l/m 3,2 km/h (1 Bft) S-SO 157 4,9 C 7,4 C
01.10.2012 01:21 7,4 C 84 % 1020,4 hPa 0,0 l/m 3,2 km/h (1 Bft) S-SO 157 4,9 C 7,4 C
01.10.2012 01:26 7,4 C 83 % 1020,5 hPa 0,0 l/m 4,0 km/h (1 Bft) S 180 4,7 C 7,4 C
01.10.2012 01:31 7,4 C 83 % 1020,5 hPa 0,0 l/m 2,5 km/h (1 Bft) S-SO 157 4,7 C 7,4 C
01.10.2012 01:36 7,5 C 84 % 1020,5 hPa 0,0 l/m 2,5 km/h (1 Bft) S-SO 157 5,0 C 7,5 C
01.10.2012 01:41 7,4 C 84 % 1020,5 hPa 0,0 l/m 3,6 km/h (1 Bft) S 180 4,9 C 7,4 C
01.10.2012 01:46 7,4 C 83 % 1020,5 hPa 0,0 l/m 2,5 km/h (1 Bft) SO 135 4,7 C 7,4 C
01.10.2012 01:51 7,4 C 83 % 1020,4 hPa 0,0 l/m 3,2 km/h (1 Bft) S-SO 157 4,7 C 7,4 C
01.10.2012 01:56 7,3 C 83 % 1020,5 hPa 0,0 l/m 2,2 km/h (1 Bft) S-SO 157 4,6 C 7,3 C
01.10.2012 02:01 7,2 C 83 % 1020,3 hPa 0,0 l/m 2,5 km/h (1 Bft) S-SO 157 4,5 C 7,2 C
01.10.2012 02:06 7,2 C 83 % 1020,4 hPa 0,0 l/m 0,0 km/h (0 Bft) S-SO 157 4,5 C 7,2 C
01.10.2012 02:11 7,2 C 83 % 1020,4 hPa 0,0 l/m 2,2 km/h (1 Bft) S-SO 157 4,5 C 7,2 C
01.10.2012 02:16 7,1 C 84 % 1020,2 hPa 0,0 l/m 1,1 km/h (1 Bft) S-SO 157 4,6 C 7,1 C
01.10.2012 02:21 6,9 C 83 % 1020,2 hPa 0,0 l/m 0,0 km/h (0 Bft) S-SO 157 4,2 C 6,9 C
01.10.2012 02:26 6,9 C 83 % 1020,2 hPa 0,0 l/m 0,0 km/h (0 Bft) S-SO 157 4,2 C 6,9 C
01.10.2012 02:31 6,8 C 83 % 1020,0 hPa 0,0 l/m 0,0 km/h (0 Bft) S-SO 157 4,1 C 6,8 C
01.10.2012 02:36 6,6 C 83 % 1020,0 hPa 0,0 l/m 2,5 km/h (1 Bft) S-SO 157 3,9 C 6,6 C
01.10.2012 02:41 6,6 C 84 % 1020,0 hPa 0,0 l/m 2,2 km/h (1 Bft) S-SO 157 4,1 C 6,6 C
01.10.2012 02:46 6,7 C 85 % 1019,8 hPa 0,0 l/m 0,0 km/h (0 Bft) S-SO 157 4,4 C 6,7 C
01.10.2012 02:51 6,7 C 85 % 1019,7 hPa 0,0 l/m 0,0 km/h (0 Bft) S-SO 157 4,4 C 6,7 C
01.10.2012 02:56 6,7 C 85 % 1019,7 hPa 0,0 l/m 0,0 km/h (0 Bft) S-SO 157 4,4 C 6,7 C
01.10.2012 03:01 6,6 C 85 % 1019,7 hPa 0,0 l/m 0,0 km/h (0 Bft) S-SO 157 4,3 C 6,6 C
01.10.2012 03:06 6,5 C 85 % 1019,7 hPa 0,0 l/m 0,0 km/h (0 Bft) S-SO 157 4,2 C 6,5 C
01.10.2012 03:11 6,5 C 85 % 1019,7 hPa 0,0 l/m 1,4 km/h (1 Bft) S-SO 157 4,2 C 6,5 C
01.10.2012 03:16 6,4 C 85 % 1019,7 hPa 0,0 l/m 0,0 km/h (0 Bft) S-SO 157 4,1 C 6,4 C
01.10.2012 03:21 6,4 C 85 % 1019,7 hPa 0,0 l/m 0,0 km/h (0 Bft) SO 135 4,1 C 6,4 C
01.10.2012 03:26 6,2 C 85 % 1019,6 hPa 0,0 l/m 1,8 km/h (1 Bft) SO 135 3,9 C 6,2 C
01.10.2012 03:31 6,1 C 85 % 1019,7 hPa 0,0 l/m 1,8 km/h (1 Bft) SO 135 3,8 C 6,1 C
01.10.2012 03:36 6,1 C 85 % 1019,6 hPa 0,0 l/m 0,0 km/h (0 Bft) SO 135 3,8 C 6,1 C
01.10.2012 03:41 5,9 C 85 % 1019,5 hPa 0,0 l/m 0,0 km/h (0 Bft) SO 135 3,6 C 5,9 C
01.10.2012 03:46 5,9 C 85 % 1019,3 hPa 0,0 l/m 0,0 km/h (0 Bft) SO 135 3,6 C 5,9 C
01.10.2012 03:51 5,9 C 86 % 1019,4 hPa 0,0 l/m 3,2 km/h (1 Bft) SO 135 3,7 C 5,9 C
01.10.2012 03:56 5,9 C 86 % 1019,4 hPa 0,0 l/m 2,2 km/h (1 Bft) SO 135 3,7 C 5,9 C
01.10.2012 04:01 5,8 C 86 % 1019,4 hPa 0,0 l/m 0,0 km/h (0 Bft) SO 135 3,6 C 5,8 C
01.10.2012 04:06 5,8 C 86 % 1019,5 hPa 0,0 l/m 0,0 km/h (0 Bft) SO 135 3,6 C 5,8 C
01.10.2012 04:11 5,6 C 86 % 1019,4 hPa 0,0 l/m 0,0 km/h (0 Bft) SO 135 3,4 C 5,6 C
01.10.2012 04:16 5,6 C 86 % 1019,5 hPa 0,0 l/m 0,0 km/h (0 Bft) SO 135 3,4 C 5,6 C
01.10.2012 04:21 5,6 C 86 % 1019,7 hPa 0,0 l/m 0,0 km/h (0 Bft) SO 135 3,4 C 5,6 C
01.10.2012 04:26 5,6 C 86 % 1019,4 hPa 0,0 l/m 0,0 km/h (0 Bft) SO 135 3,4 C 5,6 C
01.10.2012 04:31 5,5 C 86 % 1019,4 hPa 0,0 l/m 0,0 km/h (0 Bft) SO 135 3,3 C 5,5 C
01.10.2012 04:36 5,4 C 86 % 1019,4 hPa 0,0 l/m 0,0 km/h (0 Bft) SO 135 3,3 C 5,4 C
01.10.2012 04:41 5,4 C 86 % 1019,4 hPa 0,0 l/m 0,0 km/h (0 Bft) SO 135 3,3 C 5,4 C
01.10.2012 04:46 5,3 C 86 % 1019,4 hPa 0,0 l/m 1,4 km/h (1 Bft) SO 135 3,2 C 5,3 C
01.10.2012 04:51 5,3 C 86 % 1019,3 hPa 0,0 l/m 0,0 km/h (0 Bft) SO 135 3,2 C 5,3 C
01.10.2012 04:56 5,3 C 86 % 1019,4 hPa 0,0 l/m 2,5 km/h (1 Bft) SO 135 3,2 C 5,3 C
01.10.2012 05:01 5,3 C 86 % 1019,5 hPa 0,0 l/m 0,0 km/h (0 Bft) SO 135 3,2 C 5,3 C
01.10.2012 05:06 5,2 C 87 % 1019,4 hPa 0,0 l/m 1,4 km/h (1 Bft) SO 135 3,2 C 5,2 C
01.10.2012 05:11 5,2 C 87 % 1019,4 hPa 0,0 l/m 0,0 km/h (0 Bft) SO 135 3,2 C 5,2 C
01.10.2012 05:16 5,1 C 87 % 1019,3 hPa 0,0 l/m 0,0 km/h (0 Bft) SO 135 3,1 C 5,1 C
01.10.2012 05:21 5,1 C 87 % 1019,3 hPa 0,0 l/m 2,9 km/h (1 Bft) SO 135 3,1 C 5,1 C
01.10.2012 05:26 5,1 C 87 % 1019,1 hPa 0,0 l/m 4,0 km/h (1 Bft) SO 135 3,1 C 5,1 C
01.10.2012 05:31 5,1 C 87 % 1019,3 hPa 0,0 l/m 2,5 km/h (1 Bft) S-SO 157 3,1 C 5,1 C
01.10.2012 05:36 5,1 C 87 % 1019,3 hPa 0,0 l/m 5,0 km/h (1 Bft) S-SO 157 3,1 C 4,2 C
01.10.2012 05:41 5,2 C 87 % 1019,3 hPa 0,0 l/m 2,9 km/h (1 Bft) S-SO 157 3,2 C 5,2 C
01.10.2012 05:46 5,2 C 87 % 1019,2 hPa 0,0 l/m 3,6 km/h (1 Bft) S-SO 157 3,2 C 5,2 C
01.10.2012 05:51 5,3 C 87 % 1019,1 hPa 0,0 l/m 2,9 km/h (1 Bft) SO 135 3,3 C 5,3 C
01.10.2012 05:56 5,3 C 87 % 1019,1 hPa 0,0 l/m 0,0 km/h (0 Bft) SO 135 3,3 C 5,3 C
01.10.2012 06:01 5,3 C 87 % 1019,2 hPa 0,0 l/m 0,0 km/h (0 Bft) SO 135 3,3 C 5,3 C
01.10.2012 06:06 5,3 C 87 % 1019,0 hPa 0,0 l/m 0,0 km/h (0 Bft) SO 135 3,3 C 5,3 C
01.10.2012 06:11 5,2 C 87 % 1019,1 hPa 0,0 l/m 2,5 km/h (1 Bft) S-SO 157 3,2 C 5,2 C
01.10.2012 06:16 5,2 C 87 % 1019,1 hPa 0,0 l/m 3,2 km/h (1 Bft) S-SO 157 3,2 C 5,2 C
01.10.2012 06:21 5,1 C 87 % 1018,9 hPa 0,0 l/m 0,0 km/h (0 Bft) S-SO 157 3,1 C 5,1 C
01.10.2012 06:26 5,1 C 87 % 1019,0 hPa 0,0 l/m 0,0 km/h (0 Bft) S-SO 157 3,1 C 5,1 C
01.10.2012 06:31 5,1 C 87 % 1019,0 hPa 0,0 l/m 2,2 km/h (1 Bft) SO 135 3,1 C 5,1 C
01.10.2012 06:36 5,0 C 87 % 1019,1 hPa 0,0 l/m 0,0 km/h (0 Bft) SO 135 3,0 C 5,0 C
01.10.2012 06:41 4,9 C 87 % 1018,8 hPa 0,0 l/m 0,0 km/h (0 Bft) SO 135 2,9 C 4,9 C
01.10.2012 06:46 4,9 C 87 % 1018,7 hPa 0,0 l/m 0,0 km/h (0 Bft) SO 135 2,9 C 4,9 C
01.10.2012 06:51 4,9 C 87 % 1018,9 hPa 0,0 l/m 0,0 km/h (0 Bft) SO 135 2,9 C 4,9 C
01.10.2012 06:56 4,9 C 87 % 1018,8 hPa 0,0 l/m 0,0 km/h (0 Bft) SO 135 2,9 C 4,9 C
01.10.2012 07:01 4,9 C 87 % 1018,9 hPa 0,0 l/m 0,0 km/h (0 Bft) SO 135 2,9 C 4,9 C
01.10.2012 07:06 4,8 C 87 % 1018,6 hPa 0,0 l/m 0,0 km/h (0 Bft) SO 135 2,8 C 4,8 C
01.10.2012 07:11 4,8 C 87 % 1018,7 hPa 0,0 l/m 0,0 km/h (0 Bft) SO 135 2,8 C 4,8 C
01.10.2012 07:16 4,9 C 87 % 1018,7 hPa 0,0 l/m 2,2 km/h (1 Bft) SO 135 2,9 C 4,9 C
01.10.2012 07:21 4,9 C 88 % 1018,7 hPa 0,0 l/m 0,0 km/h (0 Bft) SO 135 3,1 C 4,9 C
01.10.2012 07:26 4,9 C 88 % 1018,6 hPa 0,0 l/m 0,0 km/h (0 Bft) SO 135 3,1 C 4,9 C
01.10.2012 07:31 4,9 C 88 % 1018,6 hPa 0,0 l/m 0,0 km/h (0 Bft) SO 135 3,1 C 4,9 C
01.10.2012 07:36 4,9 C 88 % 1018,5 hPa 0,0 l/m 2,5 km/h (1 Bft) O-SO 112 3,1 C 4,9 C
01.10.2012 07:41 4,9 C 87 % 1018,5 hPa 0,0 l/m 0,0 km/h (0 Bft) SO 135 2,9 C 4,9 C
01.10.2012 07:46 4,9 C 87 % 1018,6 hPa 0,0 l/m 0,0 km/h (0 Bft) SO 135 2,9 C 4,9 C
01.10.2012 07:51 4,9 C 87 % 1018,6 hPa 0,0 l/m 0,0 km/h (0 Bft) SO 135 2,9 C 4,9 C
01.10.2012 07:56 4,9 C 87 % 1018,7 hPa 0,0 l/m 1,4 km/h (1 Bft) SO 135 2,9 C 4,9 C
01.10.2012 08:01 4,9 C 87 % 1018,8 hPa 0,0 l/m 1,4 km/h (1 Bft) SO 135 2,9 C 4,9 C
01.10.2012 08:06 5,1 C 87 % 1018,9 hPa 0,0 l/m 5,0 km/h (1 Bft) SO 135 3,1 C 4,2 C
01.10.2012 08:11 5,1 C 87 % 1018,8 hPa 0,0 l/m 1,8 km/h (1 Bft) SO 135 3,1 C 5,1 C
01.10.2012 08:16 5,1 C 87 % 1018,7 hPa 0,0 l/m 0,0 km/h (0 Bft) SO 135 3,1 C 5,1 C
01.10.2012 08:21 5,1 C 87 % 1018,6 hPa 0,0 l/m 0,0 km/h (0 Bft) SO 135 3,1 C 5,1 C
01.10.2012 08:26 5,1 C 87 % 1018,6 hPa 0,0 l/m 2,2 km/h (1 Bft) SO 135 3,1 C 5,1 C
01.10.2012 08:31 5,2 C 87 % 1018,7 hPa 0,0 l/m 0,0 km/h (0 Bft) SO 135 3,2 C 5,2 C
01.10.2012 08:36 5,3 C 87 % 1018,6 hPa 0,0 l/m 0,0 km/h (0 Bft) SO 135 3,3 C 5,3 C
01.10.2012 08:41 5,3 C 87 % 1018,5 hPa 0,0 l/m 0,0 km/h (0 Bft) SO 135 3,3 C 5,3 C
01.10.2012 08:46 5,3 C 87 % 1018,7 hPa 0,0 l/m 2,2 km/h (1 Bft) SO 135 3,3 C 5,3 C
01.10.2012 08:51 5,3 C 87 % 1018,7 hPa 0,0 l/m 2,2 km/h (1 Bft) S-SO 157 3,3 C 5,3 C
01.10.2012 08:56 5,5 C 87 % 1018,7 hPa 0,0 l/m 0,0 km/h (0 Bft) SO 135 3,5 C 5,5 C
01.10.2012 09:01 5,8 C 87 % 1018,7 hPa 0,0 l/m 2,5 km/h (1 Bft) S 180 3,8 C 5,8 C
01.10.2012 09:06 6,1 C 87 % 1018,9 hPa 0,0 l/m 2,2 km/h (1 Bft) S-SO 157 4,1 C 6,1 C
01.10.2012 09:11 6,4 C 87 % 1018,9 hPa 0,0 l/m 4,0 km/h (1 Bft) S-SW 202 4,4 C 6,4 C
01.10.2012 09:16 6,7 C 87 % 1018,7 hPa 0,0 l/m 4,0 km/h (1 Bft) S-SO 157 4,7 C 6,7 C
01.10.2012 09:21 7,0 C 86 % 1018,7 hPa 0,0 l/m 2,9 km/h (1 Bft) S-SO 157 4,8 C 7,0 C
01.10.2012 09:26 7,3 C 86 % 1018,8 hPa 0,0 l/m 3,6 km/h (1 Bft) SO 135 5,1 C 7,3 C
01.10.2012 09:31 7,6 C 86 % 1018,8 hPa 0,0 l/m 4,0 km/h (1 Bft) S 180 5,4 C 7,6 C
01.10.2012 09:36 7,9 C 85 % 1018,9 hPa 0,0 l/m 3,6 km/h (1 Bft) S 180 5,5 C 7,9 C
01.10.2012 09:41 8,1 C 84 % 1018,7 hPa 0,0 l/m 4,7 km/h (1 Bft) SO 135 5,6 C 7,7 C
01.10.2012 09:46 8,5 C 84 % 1018,7 hPa 0,0 l/m 2,5 km/h (1 Bft) S-SO 157 6,0 C 8,5 C
01.10.2012 09:51 8,9 C 83 % 1018,7 hPa 0,0 l/m 0,0 km/h (0 Bft) SO 135 6,2 C 8,9 C
01.10.2012 09:56 9,3 C 82 % 1018,6 hPa 0,0 l/m 1,8 km/h (1 Bft) SO 135 6,4 C 9,3 C
01.10.2012 10:01 9,6 C 82 % 1018,6 hPa 0,0 l/m 5,0 km/h (1 Bft) S-SW 202 6,7 C 9,3 C
01.10.2012 10:06 9,9 C 81 % 1018,5 hPa 0,0 l/m 4,3 km/h (1 Bft) S 180 6,8 C 9,9 C
01.10.2012 10:11 10,1 C 80 % 1018,5 hPa 0,0 l/m 1,1 km/h (1 Bft) O-SO 112 6,8 C 10,1 C
01.10.2012 10:16 10,4 C 79 % 1018,5 hPa 0,0 l/m 4,3 km/h (1 Bft) S-SW 202 6,9 C 10,4 C
01.10.2012 10:21 10,6 C 79 % 1018,5 hPa 0,0 l/m 2,2 km/h (1 Bft) S 180 7,1 C 10,6 C
01.10.2012 10:26 10,9 C 79 % 1018,4 hPa 0,0 l/m 3,6 km/h (1 Bft) S 180 7,4 C 10,9 C
01.10.2012 10:31 11,2 C 78 % 1018,5 hPa 0,0 l/m 2,2 km/h (1 Bft) S 180 7,5 C 11,2 C
01.10.2012 10:36 11,4 C 78 % 1018,4 hPa 0,0 l/m 6,5 km/h (2 Bft) S-SW 202 7,7 C 11,4 C
01.10.2012 10:41 11,6 C 77 % 1018,5 hPa 0,0 l/m 0,0 km/h (0 Bft) SW 225 7,7 C 11,6 C
01.10.2012 10:46 11,8 C 76 % 1018,5 hPa 0,0 l/m 2,5 km/h (1 Bft) SW 225 7,7 C 11,8 C
01.10.2012 10:51 11,8 C 76 % 1018,5 hPa 0,0 l/m 1,8 km/h (1 Bft) S-SO 157 7,7 C 11,8 C
01.10.2012 10:56 11,8 C 76 % 1018,3 hPa 0,0 l/m 1,4 km/h (1 Bft) SW 225 7,7 C 11,8 C
01.10.2012 11:01 11,9 C 76 % 1018,3 hPa 0,0 l/m 0,0 km/h (0 Bft) O-SO 112 7,8 C 11,9 C
01.10.2012 11:06 12,1 C 75 % 1018,2 hPa 0,0 l/m 4,3 km/h (1 Bft) SO 135 7,8 C 12,1 C
01.10.2012 11:11 12,4 C 74 % 1018,2 hPa 0,0 l/m 2,9 km/h (1 Bft) S-SO 157 7,9 C 12,4 C
01.10.2012 11:16 12,7 C 74 % 1018,2 hPa 0,0 l/m 0,0 km/h (0 Bft) SO 135 8,2 C 12,7 C
01.10.2012 11:21 12,9 C 73 % 1018,1 hPa 0,0 l/m 0,0 km/h (0 Bft) SO 135 8,2 C 12,9 C
01.10.2012 11:26 13,2 C 72 % 1018,0 hPa 0,0 l/m 2,5 km/h (1 Bft) SW 225 8,3 C 13,2 C
01.10.2012 11:31 13,4 C 71 % 1018,1 hPa 0,0 l/m 3,2 km/h (1 Bft) W-NW 292 8,3 C 13,4 C
01.10.2012 11:36 13,6 C 70 % 1017,9 hPa 0,0 l/m 2,2 km/h (1 Bft) W-SW 247 8,2 C 13,6 C
01.10.2012 11:41 13,8 C 69 % 1018,0 hPa 0,0 l/m 8,3 km/h (2 Bft) NW 315 8,2 C 13,8 C
01.10.2012 11:46 13,9 C 69 % 1018,0 hPa 0,0 l/m 4,3 km/h (1 Bft) W-SW 247 8,3 C 13,9 C
01.10.2012 11:51 14,2 C 68 % 1017,9 hPa 0,0 l/m 4,3 km/h (1 Bft) W-SW 247 8,4 C 14,2 C
01.10.2012 11:56 14,3 C 68 % 1017,9 hPa 0,0 l/m 1,4 km/h (1 Bft) SW 225 8,5 C 14,3 C
01.10.2012 12:01 14,6 C 67 % 1017,9 hPa 0,0 l/m 4,0 km/h (1 Bft) SW 225 8,5 C 14,6 C
01.10.2012 12:06 14,8 C 64 % 1017,8 hPa 0,0 l/m 8,6 km/h (2 Bft) W 270 8,1 C 14,8 C
01.10.2012 12:11 14,9 C 64 % 1017,8 hPa 0,0 l/m 5,0 km/h (1 Bft) SW 225 8,2 C 14,9 C
01.10.2012 12:16 14,9 C 62 % 1017,8 hPa 0,0 l/m 7,6 km/h (2 Bft) W 270 7,7 C 14,9 C
01.10.2012 12:21 15,1 C 62 % 1017,6 hPa 0,0 l/m 4,0 km/h (1 Bft) W-NW 292 7,9 C 15,1 C
01.10.2012 12:26 15,3 C 62 % 1017,6 hPa 0,0 l/m 6,1 km/h (2 Bft) SW 225 8,1 C 15,3 C
01.10.2012 12:31 15,4 C 61 % 1017,6 hPa 0,0 l/m 10,1 km/h (2 Bft) W-SW 247 7,9 C 15,4 C
01.10.2012 12:36 15,5 C 61 % 1017,5 hPa 0,0 l/m 11,9 km/h (2 Bft) W 270 8,0 C 15,5 C
01.10.2012 12:41 15,6 C 61 % 1017,5 hPa 0,0 l/m 9,7 km/h (2 Bft) W-SW 247 8,1 C 15,6 C
01.10.2012 12:46 15,8 C 60 % 1017,4 hPa 0,0 l/m 6,1 km/h (2 Bft) S 180 8,1 C 15,8 C
01.10.2012 12:51 15,9 C 60 % 1017,4 hPa 0,0 l/m 10,4 km/h (2 Bft) W 270 8,1 C 15,9 C
01.10.2012 12:56 16,1 C 60 % 1017,4 hPa 0,0 l/m 3,6 km/h (1 Bft) W 270 8,3 C 16,1 C
01.10.2012 13:01 16,2 C 60 % 1017,4 hPa 0,0 l/m 1,8 km/h (1 Bft) W 270 8,4 C 16,2 C
01.10.2012 13:06 16,4 C 59 % 1017,3 hPa 0,0 l/m 4,3 km/h (1 Bft) W-SW 247 8,4 C 16,4 C
01.10.2012 13:11 16,4 C 59 % 1017,2 hPa 0,0 l/m 0,0 km/h (0 Bft) W 270 8,4 C 16,4 C
01.10.2012 13:16 16,6 C 58 % 1017,2 hPa 0,0 l/m 13,0 km/h (3 Bft) W-SW 247 8,3 C 16,6 C
01.10.2012 13:21 16,7 C 58 % 1017,1 hPa 0,0 l/m 7,2 km/h (2 Bft) SW 225 8,4 C 16,7 C
01.10.2012 13:26 16,8 C 57 % 1017,0 hPa 0,0 l/m 0,0 km/h (0 Bft) W 270 8,2 C 16,8 C
01.10.2012 13:31 17,0 C 57 % 1016,9 hPa 0,0 l/m 14,4 km/h (3 Bft) SW 225 8,4 C 17,0 C
01.10.2012 13:36 17,1 C 55 % 1016,9 hPa 0,0 l/m 8,3 km/h (2 Bft) S-SW 202 8,0 C 17,1 C
01.10.2012 13:41 17,1 C 56 % 1016,9 hPa 0,0 l/m 5,4 km/h (1 Bft) W 270 8,3 C 17,1 C
01.10.2012 13:46 17,3 C 55 % 1016,9 hPa 0,0 l/m 7,6 km/h (2 Bft) W-SW 247 8,2 C 17,3 C
01.10.2012 13:51 17,6 C 56 % 1016,8 hPa 0,0 l/m 1,4 km/h (1 Bft) W 270 8,7 C 17,6 C
01.10.2012 13:56 17,8 C 56 % 1016,8 hPa 0,0 l/m 5,0 km/h (1 Bft) W-SW 247 8,9 C 17,8 C
01.10.2012 14:01 17,9 C 55 % 1016,7 hPa 0,0 l/m 10,8 km/h (2 Bft) S-SW 202 8,7 C 17,9 C
01.10.2012 14:06 18,0 C 56 % 1016,6 hPa 0,0 l/m 4,7 km/h (1 Bft) S-SW 202 9,1 C 18,0 C
01.10.2012 14:11 18,2 C 54 % 1016,6 hPa 0,0 l/m 3,6 km/h (1 Bft) W-SW 247 8,7 C 18,2 C
01.10.2012 14:16 18,3 C 54 % 1016,5 hPa 0,0 l/m 6,8 km/h (2 Bft) S-SW 202 8,8 C 18,3 C
01.10.2012 14:21 18,4 C 54 % 1016,5 hPa 0,0 l/m 6,5 km/h (2 Bft) S-SO 157 8,9 C 18,4 C
01.10.2012 14:26 18,6 C 53 % 1016,6 hPa 0,0 l/m 5,8 km/h (2 Bft) S 180 8,8 C 18,6 C
01.10.2012 14:31 18,6 C 51 % 1016,4 hPa 0,0 l/m 6,1 km/h (2 Bft) S-SO 157 8,3 C 18,6 C
01.10.2012 14:36 18,8 C 51 % 1016,4 hPa 0,0 l/m 9,7 km/h (2 Bft) W-SW 247 8,4 C 18,8 C
01.10.2012 14:41 18,9 C 50 % 1016,4 hPa 0,0 l/m 3,2 km/h (1 Bft) SW 225 8,2 C 18,9 C
01.10.2012 14:46 18,9 C 50 % 1016,3 hPa 0,0 l/m 9,7 km/h (2 Bft) SW 225 8,2 C 18,9 C
01.10.2012 14:51 19,0 C 49 % 1016,3 hPa 0,0 l/m 5,0 km/h (1 Bft) SW 225 8,0 C 19,0 C
01.10.2012 14:56 19,0 C 49 % 1016,3 hPa 0,0 l/m 4,7 km/h (1 Bft) S-SW 202 8,0 C 19,0 C
01.10.2012 15:01 19,1 C 49 % 1016,3 hPa 0,0 l/m 0,0 km/h (0 Bft) W 270 8,1 C 19,1 C
01.10.2012 15:06 19,3 C 49 % 1016,3 hPa 0,0 l/m 5,0 km/h (1 Bft) S-SW 202 8,3 C 19,3 C
01.10.2012 15:11 19,4 C 48 % 1016,3 hPa 0,0 l/m 3,2 km/h (1 Bft) S-SW 202 8,1 C 19,4 C
01.10.2012 15:16 19,6 C 47 % 1016,1 hPa 0,0 l/m 1,1 km/h (1 Bft) W 270 8,0 C 19,6 C
01.10.2012 15:21 19,5 C 47 % 1016,1 hPa 0,0 l/m 4,3 km/h (1 Bft) S 180 7,9 C 19,5 C
01.10.2012 15:26 19,5 C 47 % 1016,0 hPa 0,0 l/m 2,2 km/h (1 Bft) W-SW 247 7,9 C 19,5 C
01.10.2012 15:31 19,6 C 47 % 1016,2 hPa 0,0 l/m 15,5 km/h (3 Bft) SW 225 8,0 C 19,6 C
01.10.2012 15:36 19,6 C 47 % 1016,0 hPa 0,0 l/m 5,0 km/h (1 Bft) SW 225 8,0 C 19,6 C
01.10.2012 15:41 19,6 C 46 % 1016,0 hPa 0,0 l/m 6,5 km/h (2 Bft) S-SW 202 7,7 C 19,6 C
01.10.2012 15:46 19,6 C 47 % 1016,1 hPa 0,0 l/m 5,8 km/h (2 Bft) S-SO 157 8,0 C 19,6 C
01.10.2012 15:51 19,7 C 47 % 1016,0 hPa 0,0 l/m 9,7 km/h (2 Bft) S 180 8,1 C 19,7 C
01.10.2012 15:56 19,7 C 47 % 1016,0 hPa 0,0 l/m 4,3 km/h (1 Bft) SW 225 8,1 C 19,7 C
01.10.2012 16:01 19,8 C 47 % 1016,0 hPa 0,0 l/m 2,9 km/h (1 Bft) S-SO 157 8,2 C 19,8 C
01.10.2012 16:06 19,8 C 47 % 1016,0 hPa 0,0 l/m 7,9 km/h (2 Bft) S-SW 202 8,2 C 19,8 C
01.10.2012 16:11 19,6 C 46 % 1016,0 hPa 0,0 l/m 3,2 km/h (1 Bft) SW 225 7,7 C 19,6 C
01.10.2012 16:16 19,6 C 46 % 1016,0 hPa 0,0 l/m 5,4 km/h (1 Bft) SW 225 7,7 C 19,6 C
01.10.2012 16:21 19,5 C 46 % 1015,9 hPa 0,0 l/m 4,7 km/h (1 Bft) W-SW 247 7,6 C 19,5 C
01.10.2012 16:26 19,5 C 46 % 1015,9 hPa 0,0 l/m 0,0 km/h (0 Bft) W-SW 247 7,6 C 19,5 C
01.10.2012 16:31 19,6 C 47 % 1015,9 hPa 0,0 l/m 4,3 km/h (1 Bft) S-SW 202 8,0 C 19,6 C
01.10.2012 16:36 19,8 C 47 % 1015,9 hPa 0,0 l/m 4,7 km/h (1 Bft) W-SW 247 8,2 C 19,8 C
01.10.2012 16:41 19,7 C 47 % 1015,9 hPa 0,0 l/m 6,8 km/h (2 Bft) W-SW 247 8,1 C 19,7 C
01.10.2012 16:46 19,6 C 47 % 1015,9 hPa 0,0 l/m 1,1 km/h (1 Bft) S-SO 157 8,0 C 19,6 C
01.10.2012 16:51 19,6 C 47 % 1015,8 hPa 0,0 l/m 6,8 km/h (2 Bft) S-SO 157 8,0 C 19,6 C
01.10.2012 16:56 19,6 C 47 % 1015,8 hPa 0,0 l/m 4,0 km/h (1 Bft) SW 225 8,0 C 19,6 C
01.10.2012 17:01 19,6 C 48 % 1015,9 hPa 0,0 l/m 0,0 km/h (0 Bft) S-SW 202 8,3 C 19,6 C
01.10.2012 17:06 19,5 C 48 % 1015,9 hPa 0,0 l/m 6,1 km/h (2 Bft) W-SW 247 8,2 C 19,5 C
01.10.2012 17:11 19,4 C 48 % 1015,8 hPa 0,0 l/m 3,6 km/h (1 Bft) S 180 8,1 C 19,4 C
01.10.2012 17:16 19,3 C 49 % 1015,7 hPa 0,0 l/m 3,2 km/h (1 Bft) S-SW 202 8,3 C 19,3 C
01.10.2012 17:21 19,3 C 49 % 1015,7 hPa 0,0 l/m 2,5 km/h (1 Bft) S 180 8,3 C 19,3 C
01.10.2012 17:26 19,1 C 49 % 1015,9 hPa 0,0 l/m 3,6 km/h (1 Bft) S-SW 202 8,1 C 19,1 C
01.10.2012 17:31 18,9 C 50 % 1015,9 hPa 0,0 l/m 4,7 km/h (1 Bft) S 180 8,2 C 18,9 C
01.10.2012 17:36 18,6 C 50 % 1015,8 hPa 0,0 l/m 2,5 km/h (1 Bft) S 180 8,0 C 18,6 C
01.10.2012 17:41 18,4 C 51 % 1015,8 hPa 0,0 l/m 1,8 km/h (1 Bft) S 180 8,1 C 18,4 C
01.10.2012 17:46 18,3 C 51 % 1015,7 hPa 0,0 l/m 2,5 km/h (1 Bft) S 180 8,0 C 18,3 C
01.10.2012 17:51 18,0 C 52 % 1015,7 hPa 0,0 l/m 2,9 km/h (1 Bft) S-SO 157 8,0 C 18,0 C
01.10.2012 17:56 17,8 C 52 % 1015,8 hPa 0,0 l/m 1,8 km/h (1 Bft) S-SW 202 7,8 C 17,8 C
01.10.2012 18:01 17,6 C 53 % 1015,8 hPa 0,0 l/m 1,1 km/h (1 Bft) S-SO 157 7,9 C 17,6 C
01.10.2012 18:06 17,4 C 54 % 1016,0 hPa 0,0 l/m 0,0 km/h (0 Bft) S-SW 202 8,0 C 17,4 C
01.10.2012 18:11 17,2 C 54 % 1015,9 hPa 0,0 l/m 2,9 km/h (1 Bft) SW 225 7,8 C 17,2 C
01.10.2012 18:16 16,9 C 54 % 1015,8 hPa 0,0 l/m 2,2 km/h (1 Bft) S-SW 202 7,5 C 16,9 C
01.10.2012 18:21 16,7 C 55 % 1015,9 hPa 0,0 l/m 0,0 km/h (0 Bft) S-SO 157 7,6 C 16,7 C
01.10.2012 18:26 16,4 C 56 % 1015,8 hPa 0,0 l/m 0,0 km/h (0 Bft) S-SO 157 7,6 C 16,4 C
01.10.2012 18:31 16,1 C 56 % 1015,8 hPa 0,0 l/m 2,2 km/h (1 Bft) S-SO 157 7,3 C 16,1 C
01.10.2012 18:36 15,9 C 57 % 1015,9 hPa 0,0 l/m 2,5 km/h (1 Bft) S-SO 157 7,4 C 15,9 C
01.10.2012 18:41 15,5 C 58 % 1015,9 hPa 0,0 l/m 0,0 km/h (0 Bft) S-SO 157 7,3 C 15,5 C
01.10.2012 18:46 15,2 C 59 % 1015,9 hPa 0,0 l/m 0,0 km/h (0 Bft) S 180 7,2 C 15,2 C
01.10.2012 18:51 14,9 C 59 % 1016,0 hPa 0,0 l/m 0,0 km/h (0 Bft) S-SO 157 7,0 C 14,9 C
01.10.2012 18:56 14,6 C 60 % 1016,0 hPa 0,0 l/m 0,0 km/h (0 Bft) S-SW 202 6,9 C 14,6 C
01.10.2012 19:06 13,9 C 62 % 1016,0 hPa 0,0 l/m 0,0 km/h (0 Bft) S-SW 202 6,7 C 13,9 C
01.10.2012 19:11 13,7 C 63 % 1016,1 hPa 0,0 l/m 1,1 km/h (1 Bft) S-SW 202 6,8 C 13,7 C
01.10.2012 19:16 13,4 C 64 % 1016,1 hPa 0,0 l/m 1,8 km/h (1 Bft) S-SW 202 6,7 C 13,4 C
01.10.2012 19:21 13,2 C 65 % 1016,0 hPa 0,0 l/m 1,4 km/h (1 Bft) S-SO 157 6,8 C 13,2 C
01.10.2012 19:26 13,0 C 66 % 1016,1 hPa 0,0 l/m 1,1 km/h (1 Bft) S-SO 157 6,8 C 13,0 C
01.10.2012 19:31 12,8 C 66 % 1016,0 hPa 0,0 l/m 2,2 km/h (1 Bft) S-SO 157 6,6 C 12,8 C
01.10.2012 19:36 12,6 C 67 % 1016,1 hPa 0,0 l/m 1,4 km/h (1 Bft) S-SO 157 6,6 C 12,6 C
01.10.2012 19:41 12,4 C 67 % 1016,1 hPa 0,0 l/m 0,0 km/h (0 Bft) S-SO 157 6,4 C 12,4 C
01.10.2012 19:46 12,2 C 68 % 1016,0 hPa 0,0 l/m 1,8 km/h (1 Bft) S-SO 157 6,5 C 12,2 C
01.10.2012 19:51 12,1 C 68 % 1016,1 hPa 0,0 l/m 2,5 km/h (1 Bft) S-SO 157 6,4 C 12,1 C
01.10.2012 19:56 11,9 C 69 % 1016,0 hPa 0,0 l/m 2,5 km/h (1 Bft) SO 135 6,4 C 11,9 C
01.10.2012 20:01 11,7 C 69 % 1016,0 hPa 0,0 l/m 2,5 km/h (1 Bft) S-SO 157 6,2 C 11,7 C
01.10.2012 20:06 11,6 C 70 % 1015,9 hPa 0,0 l/m 2,9 km/h (1 Bft) S-SO 157 6,3 C 11,6 C
01.10.2012 20:11 11,4 C 71 % 1016,1 hPa 0,0 l/m 0,0 km/h (0 Bft) S-SO 157 6,3 C 11,4 C
01.10.2012 20:16 11,4 C 71 % 1016,0 hPa 0,0 l/m 0,0 km/h (0 Bft) S-SO 157 6,3 C 11,4 C
01.10.2012 20:21 11,3 C 71 % 1016,0 hPa 0,0 l/m 0,0 km/h (0 Bft) S-SO 157 6,2 C 11,3 C
01.10.2012 20:26 11,1 C 71 % 1016,1 hPa 0,0 l/m 0,0 km/h (0 Bft) S-SO 157 6,0 C 11,1 C
01.10.2012 20:31 10,9 C 72 % 1016,2 hPa 0,0 l/m 0,0 km/h (0 Bft) S-SO 157 6,1 C 10,9 C
01.10.2012 20:36 10,8 C 72 % 1016,0 hPa 0,0 l/m 0,0 km/h (0 Bft) S-SO 157 6,0 C 10,8 C
01.10.2012 20:41 10,6 C 72 % 1016,1 hPa 0,0 l/m 0,0 km/h (0 Bft) S-SO 157 5,8 C 10,6 C
01.10.2012 20:46 10,4 C 73 % 1016,1 hPa 0,0 l/m 0,0 km/h (0 Bft) S-SO 157 5,8 C 10,4 C
01.10.2012 20:51 10,3 C 73 % 1016,0 hPa 0,0 l/m 1,4 km/h (1 Bft) S-SO 157 5,7 C 10,3 C
01.10.2012 20:56 10,2 C 74 % 1016,2 hPa 0,0 l/m 0,0 km/h (0 Bft) S-SO 157 5,8 C 10,2 C
01.10.2012 21:01 10,1 C 74 % 1016,2 hPa 0,0 l/m 0,0 km/h (0 Bft) S-SO 157 5,7 C 10,1 C
01.10.2012 21:06 9,9 C 74 % 1016,4 hPa 0,0 l/m 0,0 km/h (0 Bft) S-SO 157 5,5 C 9,9 C
01.10.2012 21:11 9,9 C 75 % 1016,2 hPa 0,0 l/m 0,0 km/h (0 Bft) S-SO 157 5,7 C 9,9 C
01.10.2012 21:16 9,8 C 75 % 1016,1 hPa 0,0 l/m 1,1 km/h (1 Bft) S-SO 157 5,6 C 9,8 C
01.10.2012 21:21 9,8 C 76 % 1016,0 hPa 0,0 l/m 4,3 km/h (1 Bft) S 180 5,8 C 9,8 C
01.10.2012 21:26 9,8 C 76 % 1016,1 hPa 0,0 l/m 5,8 km/h (2 Bft) S 180 5,8 C 9,3 C
01.10.2012 21:31 9,7 C 76 % 1016,2 hPa 0,0 l/m 0,0 km/h (0 Bft) S-SW 202 5,7 C 9,7 C
01.10.2012 21:36 9,8 C 77 % 1016,3 hPa 0,0 l/m 4,3 km/h (1 Bft) S-SO 157 6,0 C 9,8 C
01.10.2012 21:41 9,8 C 77 % 1016,3 hPa 0,0 l/m 2,2 km/h (1 Bft) S-SO 157 6,0 C 9,8 C
01.10.2012 21:46 9,8 C 77 % 1016,3 hPa 0,0 l/m 4,0 km/h (1 Bft) S 180 6,0 C 9,8 C
01.10.2012 21:51 9,8 C 77 % 1016,2 hPa 0,0 l/m 2,9 km/h (1 Bft) S-SW 202 6,0 C 9,8 C
01.10.2012 21:56 9,8 C 77 % 1016,3 hPa 0,0 l/m 4,3 km/h (1 Bft) S-SO 157 6,0 C 9,8 C
01.10.2012 22:01 9,8 C 76 % 1016,2 hPa 0,0 l/m 2,5 km/h (1 Bft) S 180 5,8 C 9,8 C
01.10.2012 22:06 9,8 C 77 % 1016,3 hPa 0,0 l/m 3,6 km/h (1 Bft) S-SO 157 6,0 C 9,8 C
01.10.2012 22:11 9,7 C 77 % 1016,3 hPa 0,0 l/m 2,2 km/h (1 Bft) S-SO 157 5,9 C 9,7 C
01.10.2012 22:16 9,6 C 77 % 1016,3 hPa 0,0 l/m 3,2 km/h (1 Bft) SO 135 5,8 C 9,6 C
01.10.2012 22:21 9,6 C 78 % 1016,3 hPa 0,0 l/m 1,4 km/h (1 Bft) S 180 6,0 C 9,6 C
01.10.2012 22:26 9,5 C 78 % 1016,3 hPa 0,0 l/m 0,0 km/h (0 Bft) S-SW 202 5,9 C 9,5 C
01.10.2012 22:31 9,5 C 78 % 1016,4 hPa 0,0 l/m 0,0 km/h (0 Bft) SO 135 5,9 C 9,5 C
01.10.2012 22:36 9,4 C 78 % 1016,4 hPa 0,0 l/m 4,0 km/h (1 Bft) S 180 5,8 C 9,4 C
01.10.2012 22:41 9,3 C 78 % 1016,4 hPa 0,0 l/m 0,0 km/h (0 Bft) S-SO 157 5,7 C 9,3 C
01.10.2012 22:46 9,2 C 78 % 1016,3 hPa 0,0 l/m 1,4 km/h (1 Bft) S-SO 157 5,6 C 9,2 C
01.10.2012 22:51 9,1 C 79 % 1016,2 hPa 0,0 l/m 2,5 km/h (1 Bft) S-SO 157 5,7 C 9,1 C
01.10.2012 22:56 9,0 C 79 % 1016,3 hPa 0,0 l/m 0,0 km/h (0 Bft) S-SO 157 5,6 C 9,0 C
01.10.2012 23:01 8,9 C 79 % 1016,2 hPa 0,0 l/m 0,0 km/h (0 Bft) SO 135 5,5 C 8,9 C
01.10.2012 23:06 8,8 C 79 % 1016,1 hPa 0,0 l/m 1,4 km/h (1 Bft) SO 135 5,4 C 8,8 C
01.10.2012 23:11 8,7 C 79 % 1016,1 hPa 0,0 l/m 0,0 km/h (0 Bft) SO 135 5,3 C 8,7 C
01.10.2012 23:16 8,6 C 80 % 1016,2 hPa 0,0 l/m 0,0 km/h (0 Bft) SO 135 5,3 C 8,6 C
01.10.2012 23:21 8,5 C 80 % 1016,1 hPa 0,0 l/m 0,0 km/h (0 Bft) SO 135 5,3 C 8,5 C
01.10.2012 23:26 8,4 C 80 % 1016,1 hPa 0,0 l/m 0,0 km/h (0 Bft) SO 135 5,2 C 8,4 C
01.10.2012 23:31 8,3 C 80 % 1016,1 hPa 0,0 l/m 1,1 km/h (1 Bft) SO 135 5,1 C 8,3 C
01.10.2012 23:36 8,3 C 80 % 1016,1 hPa 0,0 l/m 0,0 km/h (0 Bft) SO 135 5,1 C 8,3 C
01.10.2012 23:41 8,2 C 81 % 1016,0 hPa 0,0 l/m 0,0 km/h (0 Bft) SO 135 5,1 C 8,2 C
01.10.2012 23:46 8,2 C 81 % 1016,1 hPa 0,0 l/m 2,5 km/h (1 Bft) S-SO 157 5,1 C 8,2 C
01.10.2012 23:51 8,2 C 82 % 1016,1 hPa 0,0 l/m 0,0 km/h (0 Bft) SO 135 5,3 C 8,2 C
01.10.2012 23:56 8,3 C 82 % 1016,1 hPa 0,0 l/m 1,8 km/h (1 Bft) S-SO 157 5,4 C 8,3 C
_ Min-Zeit 07:06 15:41 17:16 - 00:01 - - 07:06 05:36
Minimum _ 4,8 C 46 % 1015,7 hPa - 0,0 km/h (0 Bft) - - 2,8 C 4,2 C
_ Max-Zeit 16:01 07:21 01:11 00:01 15:31 - - 14:06 16:01
Maximum _ 19,8 C 88 % 1020,9 hPa 0,0 l/m 15,5 km/h
SW (3 Bft)
- - 9,1 C 19,8 C
Durchschnitt _ 10,9 C 73 % 1017,8 hPa #0,0 l/m 2,5 km/h (1 Bft) S-SO - 5,8 C 10,9 C
(c) by David Heller